TimePDT,TemperatureF,Dew PointF,Humidity,Sea Level PressureIn,VisibilityMPH,Wind Direction,Wind SpeedMPH,Gust SpeedMPH,PrecipitationIn,Events,Conditions,WindDirDegrees,DateUTC
12:15 AM,55.4,24.8,31,30.01,10.0,Calm,Calm,-,N/A,,Clear,0,2012-11-03 07:15:00
12:35 AM,53.6,28.4,38,30.02,10.0,Calm,Calm,-,N/A,,Clear,0,2012-11-03 07:35:00
12:55 AM,55.4,28.4,36,30.01,10.0,North,4.6,-,N/A,,Clear,10,2012-11-03 07:55:00
1:15 AM,55.4,26.6,33,30.01,10.0,NW,3.5,-,N/A,,Clear,310,2012-11-03 08:15:00
1:35 AM,55.4,24.8,31,30.02,10.0,Calm,Calm,-,N/A,,Clear,0,2012-11-03 08:35:00
1:55 AM,55.4,24.8,31,30.03,10.0,Calm,Calm,-,N/A,,Clear,0,2012-11-03 08:55:00
2:15 AM,51.8,26.6,38,30.03,10.0,Calm,Calm,-,N/A,,Clear,0,2012-11-03 09:15:00
2:35 AM,50.0,30.2,47,30.03,10.0,Calm,Calm,-,N/A,,Clear,0,2012-11-03 09:35:00
2:55 AM,50.0,32.0,50,30.03,10.0,Calm,Calm,-,N/A,,Clear,0,2012-11-03 09:55:00
3:15 AM,50.0,28.4,43,30.03,10.0,NNW,3.5,-,N/A,,Clear,340,2012-11-03 10:15:00
3:35 AM,51.8,24.8,35,30.04,10.0,Calm,Calm,-,N/A,,Clear,0,2012-11-03 10:35:00
3:55 AM,48.2,26.6,43,30.04,10.0,Calm,Calm,-,N/A,,Clear,0,2012-11-03 10:55:00
4:15 AM,48.2,30.2,50,30.04,10.0,NE,3.5,-,N/A,,Clear,40,2012-11-03 11:15:00
4:35 AM,48.2,28.4,46,30.05,10.0,Calm,Calm,-,N/A,,Clear,0,2012-11-03 11:35:00
4:55 AM,48.2,26.6,43,30.05,10.0,Calm,Calm,-,N/A,,Clear,0,2012-11-03 11:55:00
5:15 AM,50.0,26.6,40,30.05,10.0,Calm,Calm,-,N/A,,Clear,0,2012-11-03 12:15:00
5:35 AM,53.6,23.0,30,30.06,10.0,Calm,Calm,-,N/A,,Clear,0,2012-11-03 12:35:00
5:55 AM,53.6,23.0,30,30.06,10.0,Calm,Calm,-,N/A,,Clear,0,2012-11-03 12:55:00
6:15 AM,50.0,24.8,37,30.07,10.0,Calm,Calm,-,N/A,,Clear,0,2012-11-03 13:15:00
6:35 AM,48.2,24.8,40,30.07,10.0,Calm,Calm,-,N/A,,Clear,0,2012-11-03 13:35:00
6:55 AM,48.2,26.6,43,30.08,10.0,Calm,Calm,-,N/A,,Clear,0,2012-11-03 13:55:00
7:15 AM,46.4,28.4,50,30.08,10.0,Calm,Calm,-,N/A,,Clear,0,2012-11-03 14:15:00
7:35 AM,48.2,28.4,46,30.09,10.0,Calm,Calm,-,N/A,,Clear,0,2012-11-03 14:35:00
8:15 AM,53.6,26.6,35,30.11,10.0,Calm,Calm,-,N/A,,Clear,0,2012-11-03 15:15:00
8:35 AM,53.6,28.4,38,30.12,10.0,Calm,Calm,-,N/A,,Clear,0,2012-11-03 15:35:00
8:55 AM,53.6,26.6,35,30.13,10.0,Calm,Calm,-,N/A,,Clear,0,2012-11-03 15:55:00
9:15 AM,55.4,26.6,33,30.13,10.0,Calm,Calm,-,N/A,,Clear,0,2012-11-03 16:15:00
9:35 AM,57.2,26.6,31,30.13,10.0,Calm,Calm,-,N/A,,Clear,0,2012-11-03 16:35:00
9:55 AM,59.0,24.8,27,30.13,10.0,Calm,Calm,-,N/A,,Clear,0,2012-11-03 16:55:00
10:15 AM,60.8,24.8,25,30.13,10.0,SSW,3.5,-,N/A,,Clear,200,2012-11-03 17:15:00
10:35 AM,64.4,24.8,22,30.14,10.0,SW,3.5,-,N/A,,Clear,220,2012-11-03 17:35:00
10:55 AM,68.0,23.0,18,30.14,10.0,Calm,Calm,-,N/A,,Clear,0,2012-11-03 17:55:00
11:15 AM,68.0,24.8,20,30.14,10.0,Calm,Calm,-,N/A,,Clear,0,2012-11-03 18:15:00
11:35 AM,71.6,24.8,17,30.14,10.0,ESE,4.6,-,N/A,,Clear,120,2012-11-03 18:35:00
11:55 AM,71.6,28.4,20,30.13,10.0,Calm,Calm,-,N/A,,Clear,0,2012-11-03 18:55:00
12:15 PM,71.6,26.6,19,30.12,10.0,Calm,Calm,-,N/A,,Clear,0,2012-11-03 19:15:00
12:35 PM,73.4,30.2,20,30.11,10.0,Calm,Calm,-,N/A,,Clear,0,2012-11-03 19:35:00
12:55 PM,73.4,26.6,18,30.11,10.0,Calm,Calm,-,N/A,,Clear,0,2012-11-03 19:55:00
1:15 PM,73.4,28.4,19,30.10,10.0,East,4.6,-,N/A,,Clear,80,2012-11-03 20:15:00
1:35 PM,73.4,26.6,18,30.09,10.0,NE,4.6,-,N/A,,Clear,50,2012-11-03 20:35:00
1:55 PM,75.2,24.8,15,30.09,10.0,NNE,4.6,-,N/A,,Clear,30,2012-11-03 20:55:00
2:15 PM,75.2,26.6,17,30.09,10.0,Calm,Calm,-,N/A,,Clear,0,2012-11-03 21:15:00
2:35 PM,75.2,26.6,17,30.08,10.0,East,5.8,-,N/A,,Clear,80,2012-11-03 21:35:00
2:55 PM,75.2,24.8,15,30.08,10.0,NE,4.6,-,N/A,,Clear,50,2012-11-03 21:55:00
3:15 PM,77.0,24.8,14,30.08,10.0,NNE,6.9,-,N/A,,Clear,30,2012-11-03 22:15:00
3:35 PM,77.0,24.8,14,30.08,10.0,NNE,4.6,-,N/A,,Clear,30,2012-11-03 22:35:00
3:55 PM,75.2,23.0,14,30.08,10.0,ENE,3.5,-,N/A,,Clear,60,2012-11-03 22:55:00
4:15 PM,75.2,23.0,14,30.07,10.0,ENE,4.6,-,N/A,,Clear,60,2012-11-03 23:15:00
4:35 PM,77.0,23.0,13,30.07,10.0,NNW,4.6,-,N/A,,Clear,330,2012-11-03 23:35:00
4:55 PM,75.2,19.4,12,30.07,10.0,NW,3.5,-,N/A,,Clear,320,2012-11-03 23:55:00
5:15 PM,75.2,19.4,12,30.07,10.0,Calm,Calm,-,N/A,,Clear,0,2012-11-04 00:15:00
5:35 PM,71.6,23.0,16,30.07,10.0,Calm,Calm,-,N/A,,Clear,0,2012-11-04 00:35:00
5:55 PM,69.8,23.0,17,30.07,10.0,North,4.6,-,N/A,,Clear,350,2012-11-04 00:55:00
6:15 PM,66.2,24.8,21,30.08,10.0,NNW,8.1,-,N/A,,Clear,330,2012-11-04 01:15:00
6:35 PM,66.2,23.0,19,30.08,10.0,NNW,9.2,-,N/A,,Clear,340,2012-11-04 01:35:00
6:55 PM,68.0,23.0,18,30.09,10.0,North,6.9,-,N/A,,Clear,350,2012-11-04 01:55:00
7:15 PM,66.2,23.0,19,30.09,10.0,NNW,8.1,-,N/A,,Clear,340,2012-11-04 02:15:00
7:35 PM,66.2,23.0,19,30.09,10.0,NNW,9.2,-,N/A,,Clear,340,2012-11-04 02:35:00
7:55 PM,64.4,24.8,22,30.09,10.0,North,8.1,-,N/A,,Clear,350,2012-11-04 02:55:00
8:15 PM,62.6,26.6,26,30.10,10.0,North,6.9,-,N/A,,Clear,10,2012-11-04 03:15:00
8:35 PM,62.6,24.8,24,30.10,10.0,Calm,Calm,-,N/A,,Clear,0,2012-11-04 03:35:00
8:55 PM,64.4,21.2,19,30.11,10.0,Calm,Calm,-,N/A,,Clear,0,2012-11-04 03:55:00
9:15 PM,62.6,23.0,22,30.12,10.0,NW,3.5,-,N/A,,Clear,310,2012-11-04 04:15:00
9:35 PM,62.6,23.0,22,30.12,10.0,NW,3.5,-,N/A,,Clear,320,2012-11-04 04:35:00
9:55 PM,57.2,24.8,29,30.13,10.0,NW,4.6,-,N/A,,Clear,320,2012-11-04 04:55:00
10:15 PM,57.2,24.8,29,30.13,10.0,NNW,3.5,-,N/A,,Clear,330,2012-11-04 05:15:00
10:35 PM,57.2,24.8,29,30.13,10.0,Calm,Calm,-,N/A,,Clear,0,2012-11-04 05:35:00
10:55 PM,57.2,24.8,29,30.14,10.0,Calm,Calm,-,N/A,,Clear,0,2012-11-04 05:55:00
11:15 PM,59.0,23.0,25,30.14,10.0,Calm,Calm,-,N/A,,Clear,0,2012-11-04 06:15:00
11:35 PM,55.4,24.8,31,30.14,10.0,Calm,Calm,-,N/A,,Clear,0,2012-11-04 06:35:00
11:55 PM,55.4,26.6,33,30.14,10.0,Calm,Calm,-,N/A,,Clear,0,2012-11-04 06:55:00